When you browse on this site, cookies collect data to enhance your experience and personalize the content and advertising you see.
Visit our Privacy Policy to learn more. By continuing to use the site, you agree to this use of cookies and data.
  • In Germany
  • List of Countries
  • For 7 days
  • Water Temperature
  • Satellite Maps
  • Weather Map
  • Weather Widgets
  • user-avatar
    Login

    Hourly Weather Masvingo

    Today, 22 January, Tuesday

    Time Temperature Precipitation Wind Pressure Humidity
    00:00 +19°C° 0 mm 1 mps 671 mmHg 89%
    01:00 +19°C° 0 mm 1 mps 671 mmHg 88%
    02:00 +19°C° 0 mm 1 mps 671 mmHg 88%
    03:00 +19°C° 0 mm 1 mps 671 mmHg 90%
    04:00 +18°C° 0 mm 1 mps 671 mmHg 92%
    05:00 +18°C° 0 mm 1 mps 670 mmHg 93%
    06:00 +18°C° 0 mm 2 mps 671 mmHg 89%
    07:00 +19°C° 0 mm 2 mps 671 mmHg 85%
    08:00 +18°C° 0 mm 2 mps 671 mmHg 88%
    09:00 +18°C° 0.3 mm 2 mps 671 mmHg 89%
    10:00 +19°C° 0.3 mm 1 mps 671 mmHg 90%
    11:00 +19°C° 0.3 mm 1 mps 671 mmHg 92%
    12:00 +18°C° 0.2 mm 2 mps 671 mmHg 91%
    13:00 +19°C° 0.2 mm 2 mps 671 mmHg 91%
    14:00 +19°C° 0.2 mm 2 mps 670 mmHg 90%
    15:00 +19°C° 0.1 mm 2 mps 670 mmHg 89%
    16:00 +20°C° 0.1 mm 2 mps 670 mmHg 88%
    17:00 +21°C° 0.1 mm 1 mps 670 mmHg 87%
    18:00 +20°C° 0 mm 1 mps 670 mmHg 90%
    19:00 +20°C° 0 mm 1 mps 670 mmHg 92%
    20:00 +17°C° 0 mm 0 mps 669 mmHg 95%
    21:00 +17°C° 0 mm 0 mps 669 mmHg 95%
    22:00 +17°C° 0 mm 0 mps 670 mmHg 95%
    23:00 +17°C° 0 mm 0 mps 670 mmHg 96%

    Tomorrow, 23 January, Wednesday

    Time Temperature Precipitation Wind Pressure Humidity
    00:00 +17°C° 0 mm 0 mps 669 mmHg 96%
    01:00 +17°C° 0 mm 0 mps 669 mmHg 96%
    02:00 +17°C° 0 mm 0 mps 668 mmHg 96%
    03:00 +16°C° 0 mm 0 mps 668 mmHg 96%
    04:00 +16°C° 0 mm 0 mps 668 mmHg 96%
    05:00 +16°C° 0 mm 0 mps 668 mmHg 96%
    06:00 +18°C° 0 mm 0 mps 669 mmHg 90%
    07:00 +21°C° 0 mm 1 mps 670 mmHg 84%
    08:00 +23°C° 0 mm 1 mps 670 mmHg 78%
    09:00 +24°C° 0 mm 2 mps 670 mmHg 72%
    10:00 +25°C° 0 mm 2 mps 670 mmHg 66%
    11:00 +26°C° 0 mm 3 mps 670 mmHg 60%
    12:00 +27°C° 0 mm 3 mps 670 mmHg 53%
    13:00 +28°C° 0 mm 3 mps 670 mmHg 47%
    14:00 +30°C° 0 mm 3 mps 670 mmHg 40%
    15:00 +29°C° 0 mm 3 mps 669 mmHg 42%
    16:00 +29°C° 0 mm 3 mps 669 mmHg 44%
    17:00 +28°C° 0 mm 3 mps 668 mmHg 46%
    18:00 +26°C° 0 mm 3 mps 668 mmHg 53%
    19:00 +24°C° 0 mm 2 mps 668 mmHg 60%
    20:00 +22°C° 0 mm 1 mps 668 mmHg 66%
    21:00 +22°C° 0 mm 1 mps 668 mmHg 67%
    22:00 +21°C° 0 mm 1 mps 668 mmHg 67%
    23:00 +21°C° 0 mm 1 mps 669 mmHg 68%

    Day after tomorrow, 24 January, Thursday

    Time Temperature Precipitation Wind Pressure Humidity
    00:00 +20°C° 0 mm 1 mps 668 mmHg 69%
    01:00 +20°C° 0 mm 1 mps 668 mmHg 71%
    02:00 +19°C° 0 mm 1 mps 667 mmHg 72%
    03:00 +19°C° 0 mm 1 mps 668 mmHg 72%
    04:00 +19°C° 0 mm 1 mps 668 mmHg 72%
    05:00 +18°C° 0 mm 1 mps 668 mmHg 73%
    06:00 +20°C° 0 mm 1 mps 669 mmHg 65%
    07:00 +22°C° 0 mm 1 mps 670 mmHg 58%
    08:00 +25°C° 0 mm 1 mps 671 mmHg 51%
    09:00 +26°C° 0 mm 2 mps 671 mmHg 46%
    10:00 +28°C° 0 mm 3 mps 671 mmHg 42%
    11:00 +30°C° 0 mm 4 mps 672 mmHg 37%
    12:00 +30°C° 0 mm 4 mps 671 mmHg 39%
    13:00 +30°C° 0 mm 4 mps 671 mmHg 42%
    14:00 +32°C° 0 mm 4 mps 670 mmHg 44%
    15:00 +30°C° 0 mm 4 mps 670 mmHg 44%
    16:00 +29°C° 0 mm 4 mps 670 mmHg 45%
    17:00 +29°C° 0 mm 4 mps 669 mmHg 45%
    18:00 +26°C° 0 mm 3 mps 670 mmHg 50%
    19:00 +24°C° 0 mm 2 mps 670 mmHg 54%
    20:00 +21°C° 0 mm 2 mps 670 mmHg 59%
    21:00 +22°C° 0 mm 1 mps 670 mmHg 59%
    22:00 +22°C° 0 mm 1 mps 670 mmHg 59%
    23:00 +21°C° 0 mm 1 mps 671 mmHg 59%

    25 January, Friday

    Time Temperature Precipitation Wind Pressure Humidity
    00:00 +21°C° 0 mm 1 mps 671 mmHg 65%
    01:00 +20°C° 0 mm 1 mps 670 mmHg 70%
    02:00 +20°C° 0 mm 1 mps 670 mmHg 75%
    03:00 +20°C° 0 mm 1 mps 670 mmHg 80%
    04:00 +19°C° 0 mm 2 mps 670 mmHg 86%
    05:00 +19°C° 0 mm 2 mps 671 mmHg 91%
    06:00 +20°C° 0 mm 2 mps 671 mmHg 86%
    07:00 +21°C° 0 mm 2 mps 672 mmHg 81%
    08:00 +22°C° 0 mm 3 mps 672 mmHg 75%
    09:00 +25°C° 0 mm 3 mps 673 mmHg 68%
    10:00 +27°C° 0 mm 3 mps 673 mmHg 61%
    11:00 +28°C° 0 mm 3 mps 673 mmHg 55%
    12:00 +29°C° 0 mm 3 mps 673 mmHg 53%
    13:00 +29°C° 0 mm 4 mps 672 mmHg 52%
    14:00 +30°C° 0 mm 4 mps 672 mmHg 51%
    15:00 +29°C° 0 mm 4 mps 671 mmHg 54%
    16:00 +28°C° 0 mm 4 mps 671 mmHg 57%
    17:00 +27°C° 0 mm 4 mps 670 mmHg 61%
    18:00 +26°C° 0 mm 3 mps 670 mmHg 68%
    19:00 +24°C° 0 mm 2 mps 671 mmHg 75%
    20:00 +21°C° 0 mm 2 mps 671 mmHg 83%
    21:00 +21°C° 0 mm 2 mps 671 mmHg 85%
    22:00 +21°C° 0 mm 1 mps 671 mmHg 87%
    23:00 +21°C° 0 mm 1 mps 671 mmHg 89%

    26 January, Saturday

    Time Temperature Precipitation Wind Pressure Humidity
    00:00 +21°C° 0 mm 1 mps 671 mmHg 89%
    01:00 +20°C° 0 mm 1 mps 671 mmHg 90%
    02:00 +20°C° 0 mm 1 mps 670 mmHg 91%
    03:00 +20°C° 0 mm 1 mps 670 mmHg 92%
    04:00 +20°C° 0 mm 1 mps 671 mmHg 92%
    05:00 +17°C° 0 mm 0 mps 671 mmHg 93%
    06:00 +21°C° 0 mm 1 mps 672 mmHg 85%
    07:00 +23°C° 0 mm 1 mps 672 mmHg 77%
    08:00 +24°C° 0 mm 2 mps 673 mmHg 69%
    09:00 +27°C° 0 mm 2 mps 673 mmHg 60%
    10:00 +29°C° 0 mm 2 mps 674 mmHg 51%
    11:00 +31°C° 0 mm 2 mps 674 mmHg 41%
    12:00 +32°C° 0 mm 2 mps 673 mmHg 39%
    13:00 +34°C° 0 mm 3 mps 673 mmHg 37%
    14:00 +35°C° 0 mm 3 mps 672 mmHg 34%
    15:00 +34°C° 0 mm 4 mps 671 mmHg 40%
    16:00 +32°C° 0 mm 4 mps 671 mmHg 47%
    17:00 +30°C° 0 mm 5 mps 670 mmHg 53%
    18:00 +28°C° 0 mm 5 mps 670 mmHg 60%
    19:00 +27°C° 0 mm 5 mps 671 mmHg 67%
    20:00 +25°C° 0 mm 5 mps 671 mmHg 74%
    21:00 +23°C° 0 mm 4 mps 671 mmHg 76%
    22:00 +23°C° 0 mm 4 mps 671 mmHg 78%
    23:00 +22°C° 0 mm 3 mps 671 mmHg 81%

    27 January, Sunday

    Time Temperature Precipitation Wind Pressure Humidity
    00:00 +22°C° 0.1 mm 3 mps 671 mmHg 83%
    01:00 +21°C° 0.1 mm 3 mps 671 mmHg 85%
    02:00 +20°C° 0.1 mm 3 mps 671 mmHg 87%
    03:00 +20°C° 0.7 mm 3 mps 671 mmHg 89%
    04:00 +20°C° 0.7 mm 2 mps 672 mmHg 91%
    05:00 +20°C° 0.7 mm 2 mps 672 mmHg 92%
    06:00 +20°C° 0.1 mm 2 mps 672 mmHg 91%
    07:00 +21°C° 0.1 mm 2 mps 673 mmHg 91%
    08:00 +21°C° 0.1 mm 2 mps 673 mmHg 90%
    09:00 +24°C° 0 mm 2 mps 673 mmHg 82%
    10:00 +25°C° 0 mm 3 mps 673 mmHg 73%
    11:00 +27°C° 0 mm 3 mps 674 mmHg 65%
    12:00 +27°C° 0.1 mm 3 mps 673 mmHg 62%
    13:00 +28°C° 0.1 mm 3 mps 673 mmHg 59%
    14:00 +29°C° 0.1 mm 4 mps 672 mmHg 56%
    15:00 +28°C° 0.2 mm 5 mps 672 mmHg 61%
    16:00 +27°C° 0.2 mm 5 mps 671 mmHg 65%
    17:00 +24°C° 0.2 mm 6 mps 671 mmHg 70%
    18:00 +23°C° 0 mm 5 mps 671 mmHg 73%
    19:00 +22°C° 0 mm 4 mps 672 mmHg 76%
    20:00 +21°C° 0 mm 4 mps 672 mmHg 80%
    21:00 +21°C° 0 mm 4 mps 672 mmHg 79%
    22:00 +21°C° 0 mm 4 mps 672 mmHg 79%
    23:00 +20°C° 0 mm 4 mps 673 mmHg 79%
    Show more